This demonstration page uses our WeatherBlox Daily Observations layout. Learn more.

Left ArrowRight Arrow

39.95238, -75.16362

Hourly Observations for February 15, 2017

Temp ( °F °C ) Dew Point ( °F °C ) Humidity (%) Winds ( mph kmh ) Pressure ( in mb ) Visibility ( mi km ) Precip ( " mm )
12:54 am 00:54 Cloudy 35 1.7 29 -1.7 78 78 SSW 6 9 29.70 1006 10 16 0.00 0.00
1:54 am 01:54 Cloudy 36 2.2 29 -1.7 76 76 S 6 9 29.68 1005 10 16 0.00 0.00
2:54 am 02:54 Cloudy 33 0.6 29 -1.7 85 85 Calm 29.65 1004 10 16 0.00 0.00
3:54 am 03:54 Cloudy 34 1.1 29 -1.7 82 82 S 3 6 29.62 1003 10 16 0.00 0.00
4:54 am 04:54 Mostly Cloudy 34 1.1 30 -1.1 85 85 Calm 29.60 1002 10 16 0.00 0.00
5:54 am 05:54 Mostly Cloudy 33 0.6 30 -1.1 89 89 Calm 29.58 1002 10 16 0.00 0.00
6:54 am 06:54 Cloudy 34 1.1 30 -1.1 85 85 WSW 3 6 29.56 1001 10 16 0.00 0.00
7:54 am 07:54 Cloudy 35 1.7 32 0 89 89 Calm 29.52 1000 7 11 0.00 0.00
8:09 am 08:09 Cloudy 35 1.7 32 0 89 89 Calm 29.53 1000 7 11 0.00 0.00
8:54 am 08:54 Cloudy 37 2.8 33 0.6 86 86 SW 7 11 29.50 999 7 11 0.00 0.00
9:54 am 09:54 Cloudy 38 3.3 33 0.6 83 83 SW 9 15 29.48 998 10 16 0.00 0.00
10:54 am 10:54 Cloudy 40 4.4 32 0 73 73 SW 8 13 29.46 998 10 16 0.00 0.00
11:54 am 11:54 Mostly Cloudy 44 6.7 31 -0.6 60 60 WSW 12 19 29.43 997 10 16 0.00 0.00
12:54 pm 12:54 Mostly Cloudy 47 8.3 31 -0.6 54 54 SW 9 15 29.39 995 10 16 0.00 0.00
1:54 pm 13:54 Mostly Cloudy 51 10.6 28 -2.2 41 41 W 18 30 29.36 994 10 16 0.00 0.00
2:54 pm 14:54 Mostly Cloudy 48 8.9 28 -2.2 46 46 NW 21 33 29.39 995 10 16 0.00 0.00
3:54 pm 15:54 Cloudy 45 7.2 26 -3.3 48 48 W 20 31 29.42 996 10 16 0.00 0.00
4:54 pm 16:54 Partly Cloudy 45 7.2 18 -7.8 34 34 W 23 37 29.42 996 10 16 0.00 0.00
5:54 pm 17:54 Partly Cloudy 42 5.6 18 -7.8 38 38 NW 23 37 29.46 998 10 16 0.00 0.00
6:54 pm 18:54 Mostly Clear 39 3.9 21 -6.1 48 48 WNW 17 28 29.49 999 10 16 0.00 0.00
7:54 pm 19:54 Mostly Clear 39 3.9 20 -6.7 46 46 WNW 13 20 29.52 1000 10 16 0.00 0.00
8:54 pm 20:54 Mostly Clear 38 3.3 21 -6.1 51 51 WNW 13 20 29.54 1000 10 16 0.00 0.00
9:54 pm 21:54 Mostly Cloudy 38 3.3 21 -6.1 51 51 W 15 24 29.56 1001 10 16 0.00 0.00
10:54 pm 22:54 Mostly Cloudy 38 3.3 19 -7.2 46 46 W 18 30 29.57 1001 10 16 0.00 0.00
11:54 pm 23:54 Mostly Cloudy 37 2.8 16 -8.9 42 42 NW 22 35 29.58 1002 10 16 0.00 0.00

Powered by AerisWeather